星链-31877 (STARLINK-31877 )

导读

STARLINK-31877是美国于2024年5月6日发射的星链卫星,隶属于SpaceX星链互联网卫星星座项目。星链系统旨在为全球提供高速低延迟宽带互联网服务,该卫星加入星座后,进一步扩展了星链的全球网络覆盖能力,推动低轨卫星互联网的部署进程。

Basic Information
目录编号:
59675
目录名称:
STARLINK-31877
国际标识:
2024-084X
轨道中心:
EARTH
卫星名称:
星链-31877
卫星全名:
星链-31877 (STARLINK-31877 )
卫星状态:
在轨 (已飞行773 天)
发射日期:
2024-05-06 UTC
国别 :
美国 (US)
星等 :
--
Orbit Information
数据来源 国际轨道数据 AOE轨道数据
星历时间 2026-06-16T16:52:50+0800
1天前
查看轨道信息
2026-06-16T00:00:00+0800
2天前
查看轨道信息
半长轴 6861.185km 6861.194km
偏心率 0.0001737 0.0002075
轨道倾角 43.005° 43.005°
近地点辐角 274.465° 280.755°
升交点赤经 204.620° 208.595°
平近点角 85.600° 166.763°
近地点 481.856km 481.633km
远地点 484.24km 484.481km
周期 94.267分钟 94.267分钟
每日圈数 15.275806 15.275775
Detailed Information
固有亮度:
5
最大亮度:
1.5
卫星平台:
Starlink v2.0 mini
覆盖范围:
全球
运营商:
太空探索技术公司
运营商所在国:
美国
制造商(研发单位):
太空探索技术公司
制造商所在国:
美国
使用方式:
暂无
Satellite Introduction
星链(Starlink)计划是由太空探索技术公司(SpaceX)提出的一个巨型低轨卫星互联网星座项目,计划在2019年至2024年间在太空搭建由约1.2万颗卫星组成的“星链”网络,其中1584颗将部署在地球上空550千米处的近地轨道,并从2020年开始工作。该卫星仍在工作。
2D Orbit Map
3D Orbit Map
Orbit Altitude Analysis Chart
Orbit Inclination Analysis Chart
Orbit Comprehensive Analysis Chart
View Comprehensive Chart